Location: Enborne
(51.3833°N, 1.3667°W)
Time: 13:55:45
(UTC+00:00)

Cosmos 2082 Rocket - Pass Details

Date: 18 September 2020
Orbit: 834 x 853 km, 71.0° (Epoch: 25 October)

Event Time Altitude Azimuth Distance (km) Brightness Sun altitude
Rises 20:37:36 0° 331° (NNW) 3,394 6.4 -22.2°
Reaches altitude 10° 20:40:17 10° 341° (NNW) 2,457 5.3 -22.6°
Maximum altitude 20:45:23 34° 45° (NE) 1,359 3.1 -23.2°
Enters shadow 20:46:17 32° 65° (ENE) 1,406 3.1 -23.3°
